Погода в Дмитриевке

Россия / Белгородская область     50°46′27″N   35°59′34″E
темп.,
°C
ветер,
м/с
пор.,
м/с
влажн.,
%
обл.,
%
осадки,
мм/ч
давл.,
гПа
погр.,
м
2 августа, пн
пн200:00+24юз45448 0.0 101169
03:00+22ююз36510 0.0 101194
06:00+22ю36541 0.0 1011111
09:00+29ююз46375 0.0 1010666
12:00+33ююз67270 0.0 10092788
15:00+35юз77225 0.0 10073327
18:00+34ююз672549 0.0 10062953
21:00+20зсз71691100 1.6 1010551
3 августа, вт
вт300:00+20ююз61380100 2.9 1010282
03:00+19зюз4988100 2.9 1010314
06:00+18з37945 0.0 1011240
09:00+22зсз456710 0.0 1012674
12:00+26зсз564471 0.0 10121546
15:00+27зсз553822 0.0 10121884
18:00+26сз554020 0.0 10121956
21:00+21с33560 0.0 101454
4 августа, ср
ср400:00+19с126173 0.0 101511
03:00+20всв1159100 0.0 101513
06:00+20с116135 0.0 101617
09:00+24ссв224867 0.0 1017850
12:00+27ссз333462 0.0 10172649
15:00+26ссз643386 0.0 10171529
18:00+27всв123019 0.0 10162416
21:00+20в344970 0.0 101755
5 августа, чт
чт500:00+21вюв3547100 0.0 1017104
03:00+19юв365399 0.0 1017132
06:00+18юв375695 0.0 1017156
09:00+24ююв683888 0.0 1017584
12:00+30юз452837 0.0 10162674
15:00+29юз342898 0.0 10152531
18:00+26ссз3441100 0.1 1015171
21:00+23св355292 0.1 101584
6 августа, пт
пт600:00+21юв47475 0.0 1013112
03:00+21ююв374593 0.0 1014148
06:00+19юв374912 0.0 1014131
09:00+27юв57335 0.0 1013535
12:00+32ююв562412 0.0 10122388
15:00+34юв562148 0.0 10113351
18:00+33юв6722100 0.0 10102919
21:00+28юв7133135 0.0 1011488